| time (UTC) | temp F | wind direction | speed MPH | gust MPH | rain 1hr in | rain 24hr in | rain mn in | humidity % | barometer mb |
| 20260504081840 | 63 | 141 | 3.0 | 5.0 | 0.00 | 0.00 | 0.00 | 72 | 1014.4 |
| 20260504044823 | 67 | 51 | 3.0 | 6.0 | 0.00 | 0.00 | 0.00 | 63 | 1016.6 |
| 20260504041822 | 68 | 179 | 1.0 | 1.0 | 0.00 | 0.00 | 0.00 | 62 | 1016.5 |
| 20260504034820 | 69 | 192 | 2.0 | 2.0 | 0.00 | 0.00 | 0.00 | 60 | 1016.7 |
| 20260504031821 | 70 | 165 | 1.0 | 2.0 | 0.00 | 0.00 | 0.00 | 57 | 1016.4 |
| 20260504024819 | 71 | 160 | 3.0 | 3.0 | 0.00 | 0.00 | 0.00 | 54 | 1016.3 |
| 20260504021816 | 72 | 162 | 3.0 | 3.0 | 0.00 | 0.00 | 0.00 | 52 | 1016.4 |
| 20260504014813 | 74 | 156 | 3.0 | 5.0 | 0.00 | 0.00 | 0.00 | 49 | 1016.1 |
| 20260504011808 | 75 | 205 | 2.0 | 3.0 | 0.00 | 0.00 | 0.00 | 48 | 1016.0 |
| 20260504004804 | 76 | 169 | 3.0 | 5.0 | 0.00 | 0.00 | 0.00 | 45 | 1015.9 |
| 20260504001803 | 78 | 207 | 4.0 | 5.0 | 0.00 | 0.00 | 0.00 | 43 | 1016.0 |
| 20260503234759 | 79 | 175 | 3.0 | 5.0 | 0.00 | 0.00 | 0.00 | 40 | 1016.2 |
| 20260503231753 | 80 | 171 | 2.0 | 2.0 | 0.00 | 0.00 | 0.00 | 40 | 1016.2 |
| 20260503224749 | 81 | 213 | 6.0 | 9.0 | 0.00 | 0.00 | 0.00 | 38 | 1016.3 |
| 20260503221745 | 82 | 179 | 6.0 | 8.0 | 0.00 | 0.00 | 0.00 | 36 | 1016.8 |
| 20260503214740 | 82 | 182 | 8.0 | 9.0 | 0.00 | 0.00 | 0.00 | 37 | 1016.7 |
| 20260503211735 | 83 | 263 | 2.0 | 3.0 | 0.00 | 0.00 | 0.00 | 38 | 1017.4 |
| 20260503204735 | 83 | 264 | 2.0 | 2.0 | 0.00 | 0.00 | 0.00 | 38 | 1018.0 |
| 20260503201732 | 85 | 180 | 1.0 | 2.0 | 0.00 | 0.00 | 0.00 | 34 | 1018.5 |
| 20260503194731 | 84 | 193 | 3.0 | 5.0 | 0.00 | 0.00 | 0.00 | 35 | 1018.8 |
| 20260503191731 | 84 | 240 | 3.0 | 3.0 | 0.00 | 0.00 | 0.00 | 36 | 1019.7 |
| 20260503184727 | 82 | 249 | 0.0 | 1.0 | 0.00 | 0.00 | 0.00 | 39 | 1019.8 |
| 20260503181721 | 83 | 152 | 6.0 | 7.0 | 0.00 | 0.00 | 0.00 | 40 | 1020.2 |
| 20260503174720 | 81 | 302 | 3.0 | 3.0 | 0.00 | 0.00 | 0.00 | 43 | 1021.0 |
| 20260503171717 | 80 | 249 | 2.0 | 2.0 | 0.00 | 0.00 | 0.00 | 45 | 1021.5 |